GEOFB FMNS-FQNC

Flight info

Callsign GEOFB
Flight time 1h 9m
Altitude 40000
Route SB DCT MG DCT VNC
Aircraft C750/M-SBDE3FGHRWXY/S

Departure

Time 2026-05-06 15:37
Airport Sambava Airport (FMNS)

Arrival

Time 2026-05-06 16:47
Airport Nacala International Airport (FQNC)
Time Latitude Longitude Altitude Speed Heading
2026-05-06 15:36 -14.28218 50.17667 19 ft 0 kts 331°
2026-05-06 15:37 -14.28199 50.17656 20 ft 21 kts 331°
2026-05-06 15:37 -14.27716 50.17384 23 ft 133 kts 331°
2026-05-06 15:37 -14.26815 50.16881 447 ft 158 kts 333°
2026-05-06 15:37 -14.25808 50.16247 912 ft 185 kts 318°
2026-05-06 15:38 -14.25209 50.14987 1403 ft 212 kts 279°
2026-05-06 15:38 -14.25216 50.13389 2052 ft 233 kts 265°
2026-05-06 15:38 -14.25309 50.11647 2755 ft 254 kts 266°
2026-05-06 15:38 -14.25408 50.09756 3427 ft 273 kts 265°
2026-05-06 15:39 -14.25556 50.07792 4458 ft 276 kts 264°
2026-05-06 15:39 -14.25693 50.05834 5451 ft 281 kts 265°
2026-05-06 15:39 -14.25821 50.03799 6403 ft 286 kts 265°
2026-05-06 15:39 -14.25947 50.01734 7424 ft 289 kts 265°
2026-05-06 15:40 -14.26080 49.99653 8462 ft 293 kts 265°
2026-05-06 15:40 -14.26225 49.97546 9486 ft 297 kts 264°
2026-05-06 15:40 -14.26365 49.95409 10469 ft 301 kts 265°
2026-05-06 15:40 -14.26506 49.93179 10881 ft 324 kts 265°
2026-05-06 15:41 -14.26661 49.90769 11020 ft 352 kts 265°
2026-05-06 15:41 -14.26827 49.88221 11474 ft 364 kts 265°
2026-05-06 15:41 -14.26993 49.85620 12360 ft 364 kts 265°
2026-05-06 15:41 -14.27160 49.82999 13096 ft 368 kts 265°
2026-05-06 15:42 -14.27332 49.80343 13783 ft 373 kts 265°
2026-05-06 15:42 -14.27506 49.77656 14458 ft 378 kts 265°
2026-05-06 15:42 -14.27678 49.74937 15118 ft 383 kts 265°
2026-05-06 15:42 -14.27852 49.72184 15768 ft 387 kts 265°
2026-05-06 15:43 -14.28030 49.69398 16429 ft 392 kts 264°
2026-05-06 15:43 -14.28210 49.66582 17087 ft 396 kts 264°
2026-05-06 15:43 -14.28391 49.63737 17760 ft 400 kts 264°
2026-05-06 15:43 -14.28571 49.60892 18420 ft 405 kts 264°
2026-05-06 15:44 -14.28753 49.57990 19132 ft 408 kts 264°
2026-05-06 15:44 -14.28938 49.55062 19893 ft 410 kts 264°
2026-05-06 15:44 -14.29124 49.52120 20644 ft 413 kts 264°
2026-05-06 15:44 -14.29310 49.49155 21366 ft 416 kts 264°
2026-05-06 15:45 -14.29496 49.46170 22074 ft 419 kts 264°
2026-05-06 15:45 -14.29684 49.43166 22767 ft 421 kts 264°
2026-05-06 15:45 -14.29874 49.40137 23443 ft 424 kts 264°
2026-05-06 15:45 -14.30064 49.37095 24120 ft 426 kts 264°
2026-05-06 15:46 -14.30255 49.34030 24725 ft 430 kts 264°
2026-05-06 15:46 -14.30446 49.30939 25321 ft 434 kts 264°
2026-05-06 15:46 -14.30637 49.27857 25875 ft 438 kts 264°
2026-05-06 15:46 -14.30832 49.24708 26445 ft 442 kts 264°
2026-05-06 15:47 -14.31027 49.21535 27004 ft 446 kts 265°
2026-05-06 15:47 -14.31223 49.18327 27539 ft 450 kts 265°
2026-05-06 15:47 -14.31423 49.15089 28090 ft 454 kts 265°
2026-05-06 15:47 -14.31623 49.11827 28579 ft 458 kts 265°
2026-05-06 15:48 -14.31824 49.08538 29092 ft 461 kts 265°
2026-05-06 15:48 -14.32026 49.05222 29564 ft 465 kts 265°
2026-05-06 15:48 -14.32228 49.01880 30037 ft 469 kts 265°
2026-05-06 15:48 -14.32433 48.98515 30494 ft 472 kts 265°
2026-05-06 15:49 -14.32636 48.95178 30914 ft 475 kts 265°
2026-05-06 15:49 -14.32841 48.91783 31563 ft 472 kts 265°
2026-05-06 15:49 -14.33044 48.88411 32171 ft 471 kts 265°
2026-05-06 15:49 -14.33247 48.85038 32707 ft 471 kts 265°
2026-05-06 15:50 -14.33449 48.81671 33268 ft 470 kts 265°
2026-05-06 15:50 -14.33649 48.78308 33830 ft 469 kts 265°
2026-05-06 15:50 -14.33849 48.74959 34378 ft 468 kts 265°
2026-05-06 15:50 -14.34049 48.71615 34940 ft 467 kts 265°
2026-05-06 15:51 -14.34248 48.68277 35487 ft 466 kts 265°
2026-05-06 15:51 -14.34442 48.64989 36020 ft 465 kts 265°
2026-05-06 15:51 -14.34638 48.61668 36557 ft 464 kts 265°
2026-05-06 15:51 -14.34835 48.58347 37067 ft 464 kts 265°
2026-05-06 15:52 -14.35031 48.55021 37567 ft 464 kts 265°
2026-05-06 15:52 -14.35225 48.51709 38070 ft 463 kts 265°
2026-05-06 15:52 -14.35418 48.48395 38547 ft 463 kts 265°
2026-05-06 15:52 -14.35612 48.45091 39035 ft 463 kts 265°
2026-05-06 15:53 -14.35805 48.41771 39519 ft 462 kts 265°
2026-05-06 15:53 -14.35995 48.38500 39929 ft 458 kts 265°
2026-05-06 15:53 -14.36190 48.35168 39914 ft 470 kts 265°
2026-05-06 15:53 -14.36385 48.31815 39920 ft 480 kts 265°
2026-05-06 15:54 -14.36787 48.24808 39931 ft 498 kts 265°
2026-05-06 15:54 -14.37203 48.17577 39938 ft 511 kts 265°
2026-05-06 15:55 -14.37623 48.10200 39933 ft 518 kts 265°
2026-05-06 15:55 -14.38043 48.02788 39934 ft 516 kts 265°
2026-05-06 15:56 -14.38456 47.95448 39932 ft 516 kts 265°
2026-05-06 15:56 -14.38873 47.88064 39932 ft 515 kts 265°
2026-05-06 15:57 -14.39282 47.80696 39932 ft 514 kts 265°
2026-05-06 15:57 -14.39692 47.73341 39931 ft 513 kts 265°
2026-05-06 15:58 -14.40094 47.66043 39930 ft 513 kts 265°
2026-05-06 15:58 -14.40499 47.58685 39932 ft 514 kts 265°
2026-05-06 15:59 -14.40899 47.51327 39933 ft 514 kts 265°
2026-05-06 15:59 -14.41299 47.43967 39931 ft 514 kts 265°
2026-05-06 16:00 -14.41693 47.36647 39929 ft 514 kts 265°
2026-05-06 16:00 -14.42089 47.29277 39934 ft 515 kts 265°
2026-05-06 16:01 -14.42482 47.21913 39930 ft 515 kts 265°
2026-05-06 16:01 -14.42873 47.14521 39933 ft 516 kts 265°
2026-05-06 16:02 -14.43260 47.07189 39931 ft 516 kts 265°
2026-05-06 16:02 -14.43646 46.99799 39931 ft 516 kts 265°
2026-05-06 16:03 -14.44032 46.92418 39936 ft 516 kts 265°
2026-05-06 16:03 -14.44413 46.85030 39938 ft 516 kts 265°
2026-05-06 16:04 -14.44795 46.77644 39938 ft 516 kts 265°
2026-05-06 16:04 -14.45167 46.70297 39938 ft 516 kts 265°
2026-05-06 16:05 -14.45545 46.62907 39936 ft 516 kts 265°
2026-05-06 16:05 -14.45918 46.55507 39936 ft 516 kts 265°
2026-05-06 16:06 -14.46289 46.48113 39937 ft 516 kts 265°
2026-05-06 16:06 -14.46656 46.40772 39937 ft 516 kts 265°
2026-05-06 16:07 -14.47021 46.33379 39940 ft 516 kts 265°
2026-05-06 16:07 -14.47384 46.25981 39941 ft 516 kts 265°
2026-05-06 16:08 -14.47747 46.18583 39941 ft 516 kts 265°
2026-05-06 16:08 -14.48107 46.11185 39943 ft 516 kts 265°
2026-05-06 16:09 -14.48462 46.03842 39943 ft 516 kts 265°
2026-05-06 16:09 -14.48817 45.96450 39941 ft 515 kts 265°
2026-05-06 16:10 -14.49169 45.89068 39943 ft 515 kts 265°
2026-05-06 16:10 -14.49520 45.81682 39942 ft 515 kts 265°
2026-05-06 16:11 -14.49864 45.74344 39944 ft 516 kts 266°
2026-05-06 16:11 -14.50210 45.66953 39939 ft 515 kts 266°
2026-05-06 16:12 -14.50552 45.59568 39939 ft 515 kts 266°
2026-05-06 16:12 -14.50893 45.52185 39939 ft 515 kts 266°
2026-05-06 16:13 -14.51232 45.44801 39939 ft 515 kts 266°
2026-05-06 16:13 -14.51564 45.37476 39940 ft 515 kts 266°
2026-05-06 16:14 -14.51900 45.30102 39940 ft 514 kts 266°
2026-05-06 16:14 -14.52227 45.22733 39940 ft 514 kts 266°
2026-05-06 16:15 -14.52558 45.15366 39938 ft 514 kts 266°
2026-05-06 16:15 -14.52881 45.08010 39940 ft 513 kts 266°
2026-05-06 16:16 -14.53203 45.00705 39936 ft 513 kts 266°
2026-05-06 16:16 -14.53523 44.93368 39940 ft 513 kts 266°
2026-05-06 16:17 -14.53841 44.86013 39943 ft 511 kts 266°
2026-05-06 16:17 -14.54158 44.78668 39942 ft 514 kts 266°
2026-05-06 16:18 -14.54468 44.71368 39944 ft 513 kts 266°
2026-05-06 16:18 -14.54780 44.64007 39944 ft 513 kts 266°
2026-05-06 16:19 -14.55089 44.56646 39944 ft 513 kts 266°
2026-05-06 16:19 -14.55396 44.49301 39945 ft 512 kts 266°
2026-05-06 16:20 -14.55698 44.42005 39946 ft 512 kts 266°
2026-05-06 16:20 -14.56000 44.34670 39945 ft 512 kts 266°
2026-05-06 16:21 -14.56299 44.27328 39945 ft 512 kts 266°
2026-05-06 16:21 -14.56597 44.20009 39946 ft 511 kts 266°
2026-05-06 16:22 -14.56888 44.12736 39947 ft 511 kts 266°
2026-05-06 16:22 -14.57180 44.05403 39947 ft 511 kts 266°
2026-05-06 16:23 -14.57470 43.98078 39946 ft 511 kts 266°
2026-05-06 16:23 -14.57758 43.90761 39944 ft 510 kts 266°
2026-05-06 16:24 -14.58040 43.83488 39944 ft 510 kts 266°
2026-05-06 16:24 -14.58323 43.76169 39948 ft 510 kts 266°
2026-05-06 16:25 -14.58604 43.68844 39948 ft 511 kts 266°
2026-05-06 16:25 -14.58882 43.61509 39945 ft 512 kts 266°
2026-05-06 16:26 -14.59159 43.54170 39947 ft 512 kts 266°
2026-05-06 16:26 -14.59430 43.46884 39947 ft 512 kts 266°
2026-05-06 16:27 -14.59704 43.39548 39946 ft 512 kts 266°
2026-05-06 16:27 -14.59973 43.32194 39946 ft 512 kts 267°
2026-05-06 16:28 -14.60240 43.24839 39948 ft 513 kts 266°
2026-05-06 16:28 -14.60507 43.17481 39947 ft 513 kts 267°
2026-05-06 16:29 -14.60768 43.10176 39947 ft 513 kts 267°
2026-05-06 16:29 -14.61029 43.02818 39948 ft 513 kts 267°
2026-05-06 16:30 -14.61247 42.96653 39946 ft 513 kts 267°
2026-05-06 16:30 -14.61544 42.88103 39947 ft 514 kts 267°
2026-05-06 16:31 -14.61794 42.80852 39196 ft 489 kts 267°
2026-05-06 16:31 -14.61911 42.77411 38556 ft 472 kts 266°
2026-05-06 16:31 -14.62024 42.74120 37949 ft 458 kts 267°
2026-05-06 16:32 -14.62135 42.70881 37351 ft 445 kts 267°
2026-05-06 16:32 -14.62243 42.67718 36769 ft 438 kts 267°
2026-05-06 16:32 -14.62350 42.64578 36200 ft 438 kts 267°
2026-05-06 16:32 -14.62456 42.61419 35619 ft 445 kts 267°
2026-05-06 16:33 -14.62563 42.58206 35024 ft 451 kts 267°
2026-05-06 16:33 -14.62672 42.54959 34425 ft 454 kts 267°
2026-05-06 16:33 -14.62780 42.51681 33817 ft 458 kts 267°
2026-05-06 16:34 -14.62996 42.45132 32599 ft 461 kts 267°
2026-05-06 16:34 -14.63236 42.37805 31240 ft 462 kts 267°
2026-05-06 16:34 -14.63358 42.34014 30542 ft 465 kts 267°
2026-05-06 16:34 -14.63454 42.31062 29990 ft 460 kts 266°
2026-05-06 16:35 -14.63554 42.27966 29413 ft 453 kts 266°
2026-05-06 16:35 -14.63657 42.24721 28814 ft 452 kts 266°
2026-05-06 16:35 -14.63761 42.21475 28213 ft 451 kts 267°
2026-05-06 16:35 -14.63864 42.18247 27615 ft 449 kts 267°
2026-05-06 16:36 -14.63966 42.15040 27021 ft 446 kts 267°
2026-05-06 16:36 -14.64064 42.11887 26437 ft 444 kts 267°
2026-05-06 16:36 -14.64164 42.08709 25849 ft 441 kts 267°
2026-05-06 16:36 -14.64264 42.05548 25266 ft 439 kts 268°
2026-05-06 16:37 -14.64361 42.02408 24684 ft 437 kts 268°
2026-05-06 16:37 -14.64457 41.99286 24105 ft 434 kts 268°
2026-05-06 16:37 -14.64553 41.96178 23530 ft 431 kts 268°
2026-05-06 16:37 -14.64856 41.86281 21696 ft 421 kts 268°
2026-05-06 16:38 -14.65213 41.74389 19493 ft 409 kts 268°
2026-05-06 16:38 -14.65556 41.62802 17347 ft 398 kts 267°
2026-05-06 16:38 -14.65885 41.51512 15258 ft 389 kts 268°
2026-05-06 16:38 -14.66196 41.40646 13248 ft 378 kts 268°
2026-05-06 16:39 -14.66496 41.29994 11272 ft 364 kts 268°
2026-05-06 16:39 -14.66756 41.20617 9533 ft 301 kts 268°
2026-05-06 16:39 -14.66988 41.12105 7984 ft 293 kts 268°
2026-05-06 16:39 -14.67214 41.03765 6462 ft 288 kts 268°
2026-05-06 16:40 -14.67431 40.95594 4982 ft 281 kts 268°
2026-05-06 16:40 -14.67642 40.87601 3532 ft 275 kts 268°
2026-05-06 16:40 -14.67829 40.80052 2155 ft 252 kts 270°
2026-05-06 16:40 -14.67522 40.75942 2162 ft 234 kts 275°
2026-05-06 16:41 -14.67396 40.74303 2120 ft 222 kts 275°
2026-05-06 16:41 -14.67282 40.72782 2088 ft 197 kts 275°
2026-05-06 16:41 -14.67058 40.71504 2054 ft 168 kts 293°
2026-05-06 16:41 -14.66441 40.70636 2032 ft 136 kts 319°
2026-05-06 16:42 -14.65683 40.70144 2046 ft 124 kts 340°
2026-05-06 16:42 -14.64842 40.69954 2097 ft 126 kts 359°
2026-05-06 16:42 -14.63972 40.70014 2114 ft 126 kts
2026-05-06 16:42 -14.63091 40.70075 2110 ft 127 kts
2026-05-06 16:43 -14.62207 40.70142 2112 ft 128 kts
2026-05-06 16:43 -14.61339 40.70212 2118 ft 127 kts
2026-05-06 16:43 -14.60455 40.70283 2125 ft 127 kts
2026-05-06 16:43 -14.59572 40.70353 2122 ft 127 kts
2026-05-06 16:44 -14.58689 40.70428 2081 ft 129 kts
2026-05-06 16:44 -14.57773 40.70501 1920 ft 133 kts
2026-05-06 16:44 -14.56858 40.70575 1741 ft 131 kts
2026-05-06 16:44 -14.55957 40.70647 1573 ft 128 kts
2026-05-06 16:45 -14.55072 40.70717 1405 ft 127 kts
2026-05-06 16:45 -14.54193 40.70789 1240 ft 126 kts
2026-05-06 16:45 -14.53329 40.70859 1077 ft 126 kts
2026-05-06 16:45 -14.52458 40.70928 914 ft 125 kts
2026-05-06 16:46 -14.51589 40.70999 745 ft 125 kts
2026-05-06 16:46 -14.50722 40.71069 585 ft 125 kts
2026-05-06 16:46 -14.49856 40.71139 425 ft 124 kts
2026-05-06 16:46 -14.49084 40.71205 383 ft 90 kts
2026-05-06 16:47 -14.48798 40.71226 377 ft 0 kts
2026-05-06 16:55 -14.48738 40.71231 376 ft 41 kts
2026-05-06 16:55 -14.48043 40.71293 376 ft 145 kts
2026-05-06 16:55 -14.47001 40.71437 874 ft 147 kts 12°
2026-05-06 16:56 -14.45935 40.71388 1439 ft 165 kts 353°
2026-05-06 16:56 -14.44818 40.70850 1878 ft 196 kts 320°
2026-05-06 16:56 -14.44035 40.69610 2462 ft 223 kts 287°
2026-05-06 16:56 -14.44094 40.67949 3014 ft 250 kts 251°
2026-05-06 16:57 -14.44882 40.66260 3727 ft 269 kts 241°
2026-05-06 16:57 -14.45784 40.64595 4778 ft 271 kts 241°
2026-05-06 16:57 -14.46678 40.62859 5792 ft 276 kts 242°
2026-05-06 16:57 -14.47560 40.61084 6741 ft 281 kts 243°
2026-05-06 16:58 -14.48468 40.59279 7749 ft 285 kts 242°
2026-05-06 16:58 -14.49395 40.57460 8839 ft 288 kts 242°
2026-05-06 16:58 -14.50329 40.55620 9907 ft 291 kts 242°
2026-05-06 16:58 -14.51279 40.53740 10659 ft 304 kts 242°
2026-05-06 16:59 -14.52302 40.51717 10926 ft 332 kts 242°
2026-05-06 16:59 -14.53415 40.49516 11077 ft 359 kts 242°
2026-05-06 16:59 -14.54566 40.47239 11772 ft 364 kts 242°
2026-05-06 16:59 -14.55741 40.44914 12557 ft 368 kts 242°